Regional Weather Roundup
Issued by NWS

Home | Current Version | Previous Version | Graphics & Text | Print | Product List | Glossary On
Versions: 1 2 3 4 5 6 7 8 9 10 11 12 13 14 15 16 17 18 19 20 21 22 23 24 25 26 27 28 29 30 31 32 33 34 35 36 37 38 39 40 41 42 43 44 45 46 47 48 49 50
148
ASUS44 KJAN 161710
RWRMS

MISSISSIPPI HOURLY WEATHER ROUNDUP
NATIONAL WEATHER SERVICE JACKSON MS
1200 PM CDT TUE SEP 16 2014

NOTE: "FAIR: INDICATES FEW OR NO CLOUDS BELOW 12,000 FEET WITH NO
SIGNIFICANT WEATHER AND/OR OBSTRUCTIONS TO VISIBILITY.

MSZ001>002-007>008-010>013-018>021-025>028-034>036-161800-
NORTHWEST MISSISSIPPI

CITY           SKY/WX    TMP DP  RH WIND       PRES   REMARKS
CLARKSDALE     FAIR      84  70  61 N6        30.10F
CLEVELAND      FAIR      84  68  59 CALM      30.09F
GREENWOOD      MOSUNNY   83  67  58 CALM      30.09F
GREENVILLE     NOT AVBL
GRENADA        FAIR      84  66  54 CALM      30.09F
OLIVE BRANCH   CLOUDY    72  72 100 NE6       30.13S FOG
OXFORD         FAIR      82  66  57 N5        30.11F
TUNICA         MOSUNNY   77  70  78 N5        30.12S
$$

MSZ003>006-009-014>017-022>024-029>033-037>039-161800-
NORTHEAST MISSISSIPPI

CITY           SKY/WX    TMP DP  RH WIND       PRES   REMARKS
COLUMBUS AFB   MOSUNNY   84  68  58 VRB1      30.08F
CORINTH        FAIR      82  68  61 VRB6G12   30.09F
GOLDN TRIANGLE MOSUNNY   86  66  51 NE7       30.09F
STARKVILLE     FAIR      82  64  54 N3        30.09F
TUPELO         CLOUDY    84  65  52 CALM      30.08F
$$

MSZ040-058-161800-
CENTRAL MISSISSIPPI

CITY           SKY/WX    TMP DP  RH WIND       PRES   REMARKS
JACKSON INTL   PTSUNNY   87  70  56 N10       30.08F HX  92
JACKSON HAWKNS MOSUNNY   86  68  54 VRB5      30.09F
MERIDIAN KEY   MOSUNNY   88  66  48 VRB3      30.07F HX  90
MERIDIAN NAS   PTSUNNY   86  68  54 N8        30.08F
RAYMOND        FAIR      84  81  89 NE6       30.08F HX  98
VICKSBURG      MOSUNNY   87  68  52 NE6       30.08F HX  90
$$

MSZ059>079-161800-
SOUTH MISSISSIPPI

CITY           SKY/WX    TMP DP  RH WIND       PRES   REMARKS
BROOKHAVEN     FAIR      84  72  65 NE5       30.10F
HATTIESBURG    MOSUNNY   87  73  62 VRB3      30.06F HX  94
MCCOMB         SUNNY     87  71  58 VRB6      30.07F HX  93
NATCHEZ        SUNNY     86  73  66 N5        30.08F HX  93
PINE BELT      MOSUNNY   88  72  58 NE5       30.09S HX  94
$$

MSZ080>082-161800-
COASTAL MISSISSIPPI

CITY           SKY/WX    TMP DP  RH WIND       PRES   REMARKS
BAY ST LOUIS   PTSUNNY   88  72  58 VRB5      30.05  HX  94
BILOXI         MOSUNNY   87  74  63 S6        30.05F HX  95
PASCAGOULA     PTSUNNY   87  74  64 N3        30.05F HX  95
GULFPORT       MOSUNNY   89  73  59 VRB3      30.04F HX  97
$$



USA.gov is the U.S. government's official web portal to all federal, state and local government web resources and services.